Find DMSP 7529

NORAD ID: 6787 Int'l Des: 1973-054 Owner: SAMSO Country: US operational
LEOCIRCULARRETROGRADESSO

現在のビュー

3D地球を読み込み中...

DMSP 7529について

説明を読み込み中...

次回通過

Passes for default location (London). Set your location on the main map for personalized predictions.

高度履歴

Loading altitude history...

軌道要素

1 06787U 73054A 26146.58137919 .00000230 00000-0 98371-4 0 9996
2 06787 98.5685 14.4993 0026833 98.3182 262.1046 14.33681385748679
Epoch: May 26, 2026 • Age: 7 hours

現在のステータス

高度 772.6 km
速度 7.48 km/s
衛星直下点 69.56°N, 16.71°E
タイプ other

Most Searched